Time,TemperatureF,DewpointF,PressureIn,WindDirection,WindDirectionDegrees,WindSpeedMPH,WindSpeedGustMPH,Humidity,HourlyPrecipIn,Conditions,Clouds,dailyrainin,SoftwareType,DateUTC
2013-02-27 00:00:00,42.6,33.2,29.71,WSW,252,13.0,16.0,69,0.00,,,0.00,VWS V14.01,2013-02-27 05:00:00,
2013-02-27 00:05:00,42.4,33.7,29.72,WSW,257,17.0,21.0,71,0.00,,,0.00,VWS V14.01,2013-02-27 05:05:00,
2013-02-27 00:10:00,41.3,33.0,29.72,West,259,13.0,15.0,72,0.00,,,0.00,VWS V14.01,2013-02-27 05:10:00,
2013-02-27 00:15:00,40.6,33.0,29.72,WSW,241,5.0,13.0,74,0.00,,,0.00,VWS V14.01,2013-02-27 05:15:00,
2013-02-27 00:20:00,40.2,33.2,29.73,WSW,237,9.0,14.0,76,0.00,,,0.00,VWS V14.01,2013-02-27 05:20:00,
2013-02-27 00:25:00,39.9,33.0,29.72,WSW,244,7.0,17.0,76,0.00,,,0.00,VWS V14.01,2013-02-27 05:25:00,
2013-02-27 00:30:00,39.9,32.6,29.73,WSW,255,8.0,11.0,75,0.00,,,0.00,VWS V14.01,2013-02-27 05:30:00,
2013-02-27 00:35:00,39.9,32.6,29.73,WSW,255,7.0,12.0,75,0.00,,,0.00,VWS V14.01,2013-02-27 05:35:00,
2013-02-27 00:40:00,39.9,32.3,29.72,WSW,237,12.0,12.0,74,0.00,,,0.00,VWS V14.01,2013-02-27 05:40:00,
2013-02-27 00:45:00,39.9,32.3,29.73,WSW,254,10.0,14.0,74,0.00,,,0.00,VWS V14.01,2013-02-27 05:45:00,
2013-02-27 00:50:00,39.9,32.3,29.73,WSW,237,11.0,16.0,74,0.00,,,0.00,VWS V14.01,2013-02-27 05:50:00,
2013-02-27 00:55:00,40.0,32.4,29.73,WSW,244,5.0,10.0,74,0.00,,,0.00,VWS V14.01,2013-02-27 05:55:00,
2013-02-27 01:00:00,40.0,32.4,29.73,WSW,244,5.0,13.0,74,0.00,,,0.00,VWS V14.01,2013-02-27 06:00:00,
2013-02-27 01:05:00,40.0,32.7,29.73,West,262,6.0,15.0,75,0.00,,,0.00,VWS V14.01,2013-02-27 06:05:00,
2013-02-27 01:10:00,39.9,32.6,29.73,WSW,246,11.0,11.0,75,0.00,,,0.00,VWS V14.01,2013-02-27 06:10:00,
2013-02-27 01:15:00,39.9,33.0,29.73,WSW,238,10.0,10.0,76,0.00,,,0.00,VWS V14.01,2013-02-27 06:15:00,
2013-02-27 01:20:00,39.9,33.3,29.74,WSW,250,5.0,10.0,77,0.00,,,0.00,VWS V14.01,2013-02-27 06:20:00,
2013-02-27 01:25:00,39.9,33.3,29.74,SW,225,1.0,12.0,77,0.00,,,0.00,VWS V14.01,2013-02-27 06:25:00,
2013-02-27 01:30:00,39.9,33.3,29.74,WSW,245,9.0,12.0,77,0.00,,,0.00,VWS V14.01,2013-02-27 06:30:00,
2013-02-27 01:36:00,39.9,33.3,29.74,WSW,244,10.0,13.0,77,0.00,,,0.00,VWS V14.01,2013-02-27 06:36:00,
2013-02-27 01:41:00,40.0,33.1,29.74,WSW,247,6.0,10.0,76,0.00,,,0.00,VWS V14.01,2013-02-27 06:41:00,
2013-02-27 01:45:00,40.0,32.7,29.74,WSW,247,10.0,15.0,75,0.00,,,0.00,VWS V14.01,2013-02-27 06:45:00,
2013-02-27 01:50:00,40.0,32.7,29.74,SW,233,10.0,14.0,75,0.00,,,0.00,VWS V14.01,2013-02-27 06:50:00,
2013-02-27 01:55:00,40.1,32.8,29.74,WSW,258,13.0,17.0,75,0.00,,,0.00,VWS V14.01,2013-02-27 06:55:00,
2013-02-27 02:01:00,40.1,32.8,29.75,SW,234,8.0,14.0,75,0.00,,,0.00,VWS V14.01,2013-02-27 07:01:00,
2013-02-27 02:06:00,40.0,32.7,29.75,WSW,245,3.0,13.0,75,0.00,,,0.00,VWS V14.01,2013-02-27 07:06:00,
2013-02-27 02:11:00,40.0,32.7,29.75,WSW,248,8.0,10.0,75,0.00,,,0.00,VWS V14.01,2013-02-27 07:11:00,
2013-02-27 02:16:00,40.0,32.7,29.75,WSW,253,8.0,12.0,75,0.00,,,0.00,VWS V14.01,2013-02-27 07:16:00,
2013-02-27 02:21:00,40.0,32.7,29.75,WSW,248,7.0,8.0,75,0.00,,,0.00,VWS V14.01,2013-02-27 07:21:00,
2013-02-27 02:26:00,40.0,32.7,29.75,WSW,247,8.0,14.0,75,0.00,,,0.00,VWS V14.01,2013-02-27 07:26:00,
2013-02-27 02:31:00,40.1,32.8,29.75,WSW,251,7.0,14.0,75,0.00,,,0.00,VWS V14.01,2013-02-27 07:31:00,
2013-02-27 02:36:00,40.1,32.8,29.75,West,265,6.0,13.0,75,0.00,,,0.00,VWS V14.01,2013-02-27 07:36:00,
2013-02-27 02:41:00,40.1,33.2,29.75,WSW,255,12.0,13.0,76,0.00,,,0.00,VWS V14.01,2013-02-27 07:41:00,
2013-02-27 02:46:00,39.9,33.0,29.75,WSW,251,11.0,15.0,76,0.00,,,0.00,VWS V14.01,2013-02-27 07:46:00,
2013-02-27 02:51:00,39.9,33.0,29.75,WSW,250,8.0,15.0,76,0.00,,,0.00,VWS V14.01,2013-02-27 07:51:00,
2013-02-27 02:56:00,39.8,32.9,29.75,WSW,247,8.0,11.0,76,0.00,,,0.00,VWS V14.01,2013-02-27 07:56:00,
2013-02-27 03:01:00,39.8,32.5,29.75,WSW,243,13.0,19.0,75,0.00,,,0.00,VWS V14.01,2013-02-27 08:01:00,
2013-02-27 03:06:00,39.7,32.8,29.75,WSW,251,11.0,14.0,76,0.00,,,0.00,VWS V14.01,2013-02-27 08:06:00,
2013-02-27 03:11:00,39.6,32.7,29.75,WSW,246,12.0,12.0,76,0.00,,,0.00,VWS V14.01,2013-02-27 08:11:00,
2013-02-27 03:16:00,39.5,32.6,29.76,WSW,240,12.0,14.0,76,0.00,,,0.00,VWS V14.01,2013-02-27 08:16:00,
2013-02-27 03:21:00,39.5,32.6,29.75,WSW,250,12.0,16.0,76,0.00,,,0.00,VWS V14.01,2013-02-27 08:21:00,
2013-02-27 03:26:00,39.4,32.5,29.76,WSW,247,10.0,11.0,76,0.00,,,0.00,VWS V14.01,2013-02-27 08:26:00,
2013-02-27 03:31:00,39.5,32.2,29.76,WSW,256,10.0,15.0,75,0.00,,,0.00,VWS V14.01,2013-02-27 08:31:00,
2013-02-27 03:36:00,39.4,32.2,29.76,WSW,239,10.0,16.0,75,0.00,,,0.00,VWS V14.01,2013-02-27 08:36:00,
2013-02-27 03:41:00,39.4,32.2,29.76,WSW,248,10.0,12.0,75,0.00,,,0.00,VWS V14.01,2013-02-27 08:41:00,
2013-02-27 03:46:00,39.4,32.5,29.76,WSW,244,9.0,13.0,76,0.00,,,0.00,VWS V14.01,2013-02-27 08:46:00,
2013-02-27 03:51:00,39.5,32.6,29.76,WSW,240,4.0,9.0,76,0.00,,,0.00,VWS V14.01,2013-02-27 08:51:00,
2013-02-27 03:56:00,39.4,32.5,29.76,WSW,246,5.0,8.0,76,0.00,,,0.00,VWS V14.01,2013-02-27 08:56:00,
2013-02-27 04:01:00,39.4,32.5,29.76,SW,231,4.0,11.0,76,0.00,,,0.00,VWS V14.01,2013-02-27 09:01:00,
2013-02-27 04:06:00,39.4,32.5,29.76,WSW,253,5.0,11.0,76,0.00,,,0.00,VWS V14.01,2013-02-27 09:06:00,
2013-02-27 04:11:00,39.4,32.5,29.76,WSW,244,2.0,8.0,76,0.00,,,0.00,VWS V14.01,2013-02-27 09:11:00,
2013-02-27 04:16:00,39.4,32.5,29.76,WSW,244,6.0,11.0,76,0.00,,,0.00,VWS V14.01,2013-02-27 09:16:00,
2013-02-27 04:21:00,39.4,32.2,29.77,WSW,251,8.0,16.0,75,0.00,,,0.00,VWS V14.01,2013-02-27 09:21:00,
2013-02-27 04:26:00,39.4,32.2,29.77,WSW,255,7.0,11.0,75,0.00,,,0.00,VWS V14.01,2013-02-27 09:26:00,
2013-02-27 04:31:00,39.4,31.8,29.77,WSW,241,11.0,18.0,74,0.00,,,0.00,VWS V14.01,2013-02-27 09:31:00,
2013-02-27 04:36:00,39.5,31.9,29.77,SW,234,7.0,14.0,74,0.00,,,0.00,VWS V14.01,2013-02-27 09:36:00,
2013-02-27 04:41:00,39.4,32.2,29.77,SSW,211,8.0,8.0,75,0.00,,,0.00,VWS V14.01,2013-02-27 09:41:00,
2013-02-27 04:46:00,39.3,32.0,29.77,SW,232,4.0,10.0,75,0.00,,,0.00,VWS V14.01,2013-02-27 09:46:00,
2013-02-27 04:51:00,39.3,32.0,29.78,SSW,212,3.0,6.0,75,0.00,,,0.00,VWS V14.01,2013-02-27 09:51:00,
2013-02-27 04:56:00,39.2,32.0,29.78,SW,215,4.0,8.0,75,0.00,,,0.00,VWS V14.01,2013-02-27 09:56:00,
2013-02-27 05:01:00,39.1,31.9,29.78,WSW,240,0.0,9.0,75,0.00,,,0.00,VWS V14.01,2013-02-27 10:01:00,
2013-02-27 05:06:00,39.1,31.9,29.78,SW,219,3.0,6.0,75,0.00,,,0.00,VWS V14.01,2013-02-27 10:06:00,
2013-02-27 05:11:00,39.0,31.8,29.78,SW,216,2.0,9.0,75,0.00,,,0.00,VWS V14.01,2013-02-27 10:11:00,
2013-02-27 05:16:00,39.0,31.8,29.79,SW,235,2.0,4.0,75,0.00,,,0.00,VWS V14.01,2013-02-27 10:16:00,
2013-02-27 05:21:00,39.0,31.8,29.78,SW,221,4.0,6.0,75,0.00,,,0.00,VWS V14.01,2013-02-27 10:21:00,
2013-02-27 05:26:00,38.9,31.7,29.79,SW,222,7.0,7.0,75,0.00,,,0.00,VWS V14.01,2013-02-27 10:26:00,
2013-02-27 05:31:00,38.9,31.7,29.79,WSW,244,4.0,7.0,75,0.00,,,0.00,VWS V14.01,2013-02-27 10:31:00,
2013-02-27 05:36:00,38.9,31.7,29.79,WSW,252,7.0,8.0,75,0.00,,,0.00,VWS V14.01,2013-02-27 10:36:00,
2013-02-27 05:41:00,38.9,31.7,29.80,SW,218,7.0,9.0,75,0.00,,,0.00,VWS V14.01,2013-02-27 10:41:00,
2013-02-27 05:46:00,38.9,31.7,29.80,SW,227,2.0,5.0,75,0.00,,,0.00,VWS V14.01,2013-02-27 10:46:00,
2013-02-27 05:51:00,38.9,31.7,29.80,SSW,212,2.0,5.0,75,0.00,,,0.00,VWS V14.01,2013-02-27 10:51:00,
2013-02-27 05:56:00,39.0,31.8,29.80,WSW,253,6.0,6.0,75,0.00,,,0.00,VWS V14.01,2013-02-27 10:56:00,
2013-02-27 06:01:00,39.0,31.4,29.81,SW,235,5.0,9.0,74,0.00,,,0.00,VWS V14.01,2013-02-27 11:01:00,
2013-02-27 06:06:00,39.0,31.4,29.80,WSW,246,7.0,9.0,74,0.00,,,0.00,VWS V14.01,2013-02-27 11:06:00,
2013-02-27 06:11:00,39.0,31.4,29.81,SW,220,8.0,12.0,74,0.00,,,0.00,VWS V14.01,2013-02-27 11:11:00,
2013-02-27 06:16:00,39.1,31.5,29.80,SW,232,7.0,9.0,74,0.00,,,0.00,VWS V14.01,2013-02-27 11:16:00,
2013-02-27 06:21:00,39.1,31.5,29.80,SW,219,6.0,12.0,74,0.00,,,0.00,VWS V14.01,2013-02-27 11:21:00,
2013-02-27 06:26:00,39.1,31.5,29.80,WSW,238,11.0,13.0,74,0.00,,,0.00,VWS V14.01,2013-02-27 11:26:00,
2013-02-27 06:31:00,39.1,31.5,29.81,WSW,242,5.0,7.0,74,0.00,,,0.00,VWS V14.01,2013-02-27 11:31:00,
2013-02-27 06:36:00,39.1,31.5,29.81,SW,234,7.0,8.0,74,0.00,,,0.00,VWS V14.01,2013-02-27 11:36:00,
2013-02-27 06:41:00,39.2,31.6,29.81,WSW,249,5.0,9.0,74,0.00,,,0.00,VWS V14.01,2013-02-27 11:41:00,
2013-02-27 06:46:00,39.2,31.3,29.81,SSW,210,5.0,7.0,73,0.00,,,0.00,VWS V14.01,2013-02-27 11:46:00,
2013-02-27 06:51:00,39.1,31.2,29.81,WSW,242,4.0,7.0,73,0.00,,,0.00,VWS V14.01,2013-02-27 11:51:00,
2013-02-27 06:56:00,39.1,31.5,29.81,SW,223,6.0,11.0,74,0.00,,,0.00,VWS V14.01,2013-02-27 11:56:00,
2013-02-27 07:01:00,39.2,31.6,29.81,WSW,249,7.0,12.0,74,0.00,,,0.00,VWS V14.01,2013-02-27 12:01:00,
2013-02-27 07:06:00,39.1,31.5,29.81,SW,233,10.0,13.0,74,0.00,,,0.00,VWS V14.01,2013-02-27 12:06:00,
2013-02-27 07:11:00,39.1,31.5,29.81,WSW,247,5.0,8.0,74,0.00,,,0.00,VWS V14.01,2013-02-27 12:11:00,
2013-02-27 07:16:00,39.1,31.5,29.81,WSW,253,1.0,5.0,74,0.00,,,0.00,VWS V14.01,2013-02-27 12:16:00,
2013-02-27 07:21:00,39.1,31.5,29.81,SW,227,8.0,9.0,74,0.00,,,0.00,VWS V14.01,2013-02-27 12:21:00,
2013-02-27 07:26:00,39.1,31.5,29.81,SSW,213,3.0,4.0,74,0.00,,,0.00,VWS V14.01,2013-02-27 12:26:00,
2013-02-27 07:31:00,39.1,31.2,29.81,WSW,250,2.0,5.0,73,0.00,,,0.00,VWS V14.01,2013-02-27 12:31:00,
2013-02-27 07:36:00,39.1,31.5,29.80,SW,229,4.0,8.0,74,0.00,,,0.00,VWS V14.01,2013-02-27 12:36:00,
2013-02-27 07:41:00,39.1,31.2,29.81,SW,231,4.0,6.0,73,0.00,,,0.00,VWS V14.01,2013-02-27 12:41:00,
2013-02-27 07:46:00,39.2,31.3,29.81,SW,230,4.0,7.0,73,0.00,,,0.00,VWS V14.01,2013-02-27 12:46:00,
2013-02-27 07:51:00,39.2,31.3,29.81,SW,234,2.0,9.0,73,0.00,,,0.00,VWS V14.01,2013-02-27 12:51:00,
2013-02-27 07:56:00,39.3,31.4,29.82,SW,225,3.0,6.0,73,0.00,,,0.00,VWS V14.01,2013-02-27 12:56:00,
2013-02-27 08:01:00,39.3,31.4,29.82,WSW,246,4.0,10.0,73,0.00,,,0.00,VWS V14.01,2013-02-27 13:01:00,
2013-02-27 08:06:00,39.4,31.5,29.83,West,259,9.0,9.0,73,0.00,,,0.00,VWS V14.01,2013-02-27 13:06:00,
2013-02-27 08:11:00,39.4,31.1,29.83,WSW,254,8.0,13.0,72,0.00,,,0.00,VWS V14.01,2013-02-27 13:11:00,
2013-02-27 08:16:00,39.5,31.6,29.83,WSW,248,8.0,10.0,73,0.00,,,0.00,VWS V14.01,2013-02-27 13:16:00,
2013-02-27 08:21:00,39.5,31.2,29.84,West,261,6.0,10.0,72,0.00,,,0.00,VWS V14.01,2013-02-27 13:21:00,
2013-02-27 08:26:00,39.6,31.3,29.84,WSW,245,11.0,11.0,72,0.00,,,0.00,VWS V14.01,2013-02-27 13:26:00,
2013-02-27 08:31:00,39.7,31.1,29.85,WSW,253,5.0,12.0,71,0.00,,,0.00,VWS V14.01,2013-02-27 13:31:00,
2013-02-27 08:36:00,39.7,31.1,29.85,SW,234,7.0,15.0,71,0.00,,,0.00,VWS V14.01,2013-02-27 13:36:00,
2013-02-27 08:41:00,39.8,31.2,29.85,WSW,257,6.0,10.0,71,0.00,,,0.00,VWS V14.01,2013-02-27 13:41:00,
2013-02-27 08:46:00,39.8,31.5,29.85,WSW,239,10.0,12.0,72,0.00,,,0.00,VWS V14.01,2013-02-27 13:46:00,
2013-02-27 08:51:00,39.8,31.2,29.85,WSW,248,7.0,10.0,71,0.00,,,0.00,VWS V14.01,2013-02-27 13:51:00,
2013-02-27 08:56:00,39.9,31.3,29.85,West,265,12.0,13.0,71,0.00,,,0.00,VWS V14.01,2013-02-27 13:56:00,
2013-02-27 09:01:00,40.0,31.4,29.85,WSW,242,7.0,13.0,71,0.00,,,0.00,VWS V14.01,2013-02-27 14:01:00,
2013-02-27 09:07:00,40.1,31.1,29.85,WSW,253,8.0,10.0,70,0.00,,,0.00,VWS V14.01,2013-02-27 14:07:00,
2013-02-27 09:12:00,40.2,31.6,29.84,WSW,238,3.0,11.0,71,0.00,,,0.00,VWS V14.01,2013-02-27 14:12:00,
2013-02-27 09:17:00,40.3,31.3,29.84,WSW,247,8.0,12.0,70,0.00,,,0.00,VWS V14.01,2013-02-27 14:17:00,
2013-02-27 09:22:00,40.4,31.0,29.85,West,263,6.0,15.0,69,0.00,,,0.00,VWS V14.01,2013-02-27 14:22:00,
2013-02-27 09:27:00,40.4,31.0,29.85,WSW,254,7.0,16.0,69,0.00,,,0.00,VWS V14.01,2013-02-27 14:27:00,
2013-02-27 09:32:00,40.5,31.1,29.86,WSW,246,11.0,15.0,69,0.00,,,0.00,VWS V14.01,2013-02-27 14:32:00,
2013-02-27 09:37:00,40.6,31.2,29.86,West,267,7.0,15.0,69,0.00,,,0.00,VWS V14.01,2013-02-27 14:37:00,
2013-02-27 09:42:00,40.7,31.3,29.86,West,265,8.0,13.0,69,0.00,,,0.00,VWS V14.01,2013-02-27 14:42:00,
2013-02-27 09:47:00,40.7,31.3,29.87,WSW,244,13.0,15.0,69,0.00,,,0.00,VWS V14.01,2013-02-27 14:47:00,
2013-02-27 09:52:00,40.7,31.0,29.86,WSW,248,12.0,12.0,68,0.00,,,0.00,VWS V14.01,2013-02-27 14:52:00,
2013-02-27 09:57:00,40.8,31.4,29.86,WSW,245,9.0,15.0,69,0.00,,,0.00,VWS V14.01,2013-02-27 14:57:00,
2013-02-27 10:02:00,40.9,31.5,29.86,WSW,253,6.0,11.0,69,0.00,,,0.00,VWS V14.01,2013-02-27 15:02:00,
2013-02-27 10:07:00,40.9,31.5,29.86,WSW,250,11.0,13.0,69,0.00,,,0.00,VWS V14.01,2013-02-27 15:07:00,
2013-02-27 10:12:00,41.0,31.3,29.86,WSW,240,16.0,16.0,68,0.00,,,0.00,VWS V14.01,2013-02-27 15:12:00,
2013-02-27 10:17:00,41.1,31.4,29.86,WSW,246,10.0,18.0,68,0.00,,,0.00,VWS V14.01,2013-02-27 15:17:00,
2013-02-27 10:22:00,41.2,31.1,29.86,WSW,241,11.0,15.0,67,0.00,,,0.00,VWS V14.01,2013-02-27 15:22:00,
2013-02-27 10:27:00,41.4,31.3,29.86,WSW,241,8.0,13.0,67,0.00,,,0.00,VWS V14.01,2013-02-27 15:27:00,
2013-02-27 10:32:00,41.5,31.0,29.86,West,266,7.0,15.0,66,0.00,,,0.00,VWS V14.01,2013-02-27 15:32:00,
2013-02-27 10:37:00,41.6,31.5,29.86,WSW,255,9.0,13.0,67,0.00,,,0.00,VWS V14.01,2013-02-27 15:37:00,
2013-02-27 10:42:00,41.7,31.6,29.86,WSW,250,12.0,14.0,67,0.00,,,0.00,VWS V14.01,2013-02-27 15:42:00,
2013-02-27 10:47:00,41.8,31.3,29.86,WSW,253,8.0,14.0,66,0.00,,,0.00,VWS V14.01,2013-02-27 15:47:00,
2013-02-27 10:52:00,41.9,31.4,29.86,WSW,253,8.0,10.0,66,0.00,,,0.00,VWS V14.01,2013-02-27 15:52:00,
2013-02-27 10:57:00,42.0,31.1,29.85,WSW,253,14.0,16.0,65,0.00,,,0.00,VWS V14.01,2013-02-27 15:57:00,
2013-02-27 11:02:00,41.9,31.0,29.86,WSW,241,14.0,16.0,65,0.00,,,0.00,VWS V14.01,2013-02-27 16:02:00,
2013-02-27 11:07:00,41.8,30.9,29.86,WSW,257,8.0,14.0,65,0.00,,,0.00,VWS V14.01,2013-02-27 16:07:00,
2013-02-27 11:12:00,41.9,31.4,29.86,WSW,247,6.0,11.0,66,0.00,,,0.00,VWS V14.01,2013-02-27 16:12:00,
2013-02-27 11:17:00,41.9,31.8,29.86,WSW,244,8.0,14.0,67,0.00,,,0.00,VWS V14.01,2013-02-27 16:17:00,
2013-02-27 11:22:00,42.2,31.7,29.85,WSW,244,12.0,12.0,66,0.00,,,0.00,VWS V14.01,2013-02-27 16:22:00,
2013-02-27 11:27:00,42.1,31.2,29.85,WSW,256,15.0,15.0,65,0.00,,,0.00,VWS V14.01,2013-02-27 16:27:00,
2013-02-27 11:32:00,42.2,30.9,29.85,WSW,255,5.0,14.0,64,0.00,,,0.00,VWS V14.01,2013-02-27 16:32:00,
2013-02-27 11:37:00,42.5,31.2,29.85,WSW,244,6.0,14.0,64,0.00,,,0.00,VWS V14.01,2013-02-27 16:37:00,
2013-02-27 11:42:00,42.7,31.4,29.85,WSW,250,9.0,18.0,64,0.00,,,0.00,VWS V14.01,2013-02-27 16:42:00,
2013-02-27 11:47:00,42.6,31.3,29.86,SW,215,6.0,9.0,64,0.00,,,0.00,VWS V14.01,2013-02-27 16:47:00,
2013-02-27 11:52:00,42.5,30.8,29.85,SW,234,6.0,16.0,63,0.00,,,0.00,VWS V14.01,2013-02-27 16:52:00,
2013-02-27 11:57:00,42.5,31.2,29.85,WSW,252,9.0,15.0,64,0.00,,,0.00,VWS V14.01,2013-02-27 16:57:00,
2013-02-27 12:02:00,42.7,31.4,29.85,WSW,246,7.0,10.0,64,0.00,,,0.00,VWS V14.01,2013-02-27 17:02:00,
2013-02-27 12:07:00,43.0,31.7,29.85,WSW,242,10.0,14.0,64,0.00,,,0.00,VWS V14.01,2013-02-27 17:07:00,
2013-02-27 12:12:00,43.0,31.3,29.85,SW,236,11.0,16.0,63,0.00,,,0.00,VWS V14.01,2013-02-27 17:12:00,
2013-02-27 12:17:00,43.0,30.9,29.85,WSW,249,12.0,21.0,62,0.00,,,0.00,VWS V14.01,2013-02-27 17:17:00,
2013-02-27 12:22:00,43.1,31.4,29.85,WSW,251,10.0,14.0,63,0.00,,,0.00,VWS V14.01,2013-02-27 17:22:00,
2013-02-27 12:27:00,43.1,31.4,29.84,WSW,243,13.0,16.0,63,0.00,,,0.00,VWS V14.01,2013-02-27 17:27:00,
2013-02-27 12:32:00,43.1,31.0,29.84,WSW,245,9.0,13.0,62,0.00,,,0.00,VWS V14.01,2013-02-27 17:32:00,
2013-02-27 12:37:00,43.1,31.0,29.84,WSW,248,12.0,12.0,62,0.00,,,0.00,VWS V14.01,2013-02-27 17:37:00,
2013-02-27 12:42:00,43.3,31.6,29.84,SW,236,11.0,11.0,63,0.00,,,0.00,VWS V14.01,2013-02-27 17:42:00,
2013-02-27 12:47:00,43.5,31.0,29.84,West,268,21.0,21.0,61,0.00,,,0.00,VWS V14.01,2013-02-27 17:47:00,
2013-02-27 12:52:00,44.0,31.8,29.84,West,264,12.0,16.0,62,0.00,,,0.00,VWS V14.01,2013-02-27 17:52:00,
2013-02-27 12:57:00,44.7,32.1,29.84,West,261,11.0,17.0,61,0.00,,,0.00,VWS V14.01,2013-02-27 17:57:00,
2013-02-27 13:02:00,45.3,31.4,29.84,West,266,11.0,19.0,58,0.00,,,0.00,VWS V14.01,2013-02-27 18:02:00,
2013-02-27 13:07:00,45.1,31.2,29.83,WSW,255,12.0,16.0,58,0.00,,,0.00,VWS V14.01,2013-02-27 18:07:00,
2013-02-27 13:12:00,45.4,32.3,29.83,WSW,249,11.0,16.0,60,0.00,,,0.00,VWS V14.01,2013-02-27 18:12:00,
2013-02-27 13:17:00,45.3,31.4,29.83,WSW,238,6.0,18.0,58,0.00,,,0.00,VWS V14.01,2013-02-27 18:17:00,
2013-02-27 13:22:00,45.1,31.6,29.83,WSW,256,9.0,16.0,59,0.00,,,0.00,VWS V14.01,2013-02-27 18:22:00,
2013-02-27 13:27:00,45.1,32.1,29.83,West,264,8.0,15.0,60,0.00,,,0.00,VWS V14.01,2013-02-27 18:27:00,
2013-02-27 13:32:00,45.3,32.2,29.83,WSW,243,11.0,16.0,60,0.00,,,0.00,VWS V14.01,2013-02-27 18:32:00,
2013-02-27 13:37:00,45.3,32.2,29.82,WSW,240,8.0,13.0,60,0.00,,,0.00,VWS V14.01,2013-02-27 18:37:00,
2013-02-27 13:42:00,45.4,32.8,29.82,WSW,247,6.0,12.0,61,0.00,,,0.00,VWS V14.01,2013-02-27 18:42:00,
2013-02-27 13:47:00,45.6,32.1,29.82,WSW,255,11.0,11.0,59,0.00,,,0.00,VWS V14.01,2013-02-27 18:47:00,
2013-02-27 13:52:00,45.5,32.4,29.82,WSW,242,6.0,11.0,60,0.00,,,0.00,VWS V14.01,2013-02-27 18:52:00,
2013-02-27 13:57:00,45.4,32.8,29.82,WSW,243,9.0,11.0,61,0.00,,,0.00,VWS V14.01,2013-02-27 18:57:00,
2013-02-27 14:03:00,45.6,32.9,29.82,WSW,248,8.0,13.0,61,0.00,,,0.00,VWS V14.01,2013-02-27 19:03:00,
2013-02-27 14:08:00,45.4,32.3,29.82,WSW,255,7.0,10.0,60,0.00,,,0.00,VWS V14.01,2013-02-27 19:08:00,
2013-02-27 14:13:00,45.3,31.8,29.82,WSW,251,11.0,17.0,59,0.00,,,0.00,VWS V14.01,2013-02-27 19:13:00,
2013-02-27 14:18:00,45.0,31.5,29.82,WSW,258,8.0,14.0,59,0.00,,,0.00,VWS V14.01,2013-02-27 19:18:00,
2013-02-27 14:23:00,45.2,31.7,29.82,WSW,251,8.0,16.0,59,0.00,,,0.00,VWS V14.01,2013-02-27 19:23:00,
2013-02-27 14:28:00,45.4,31.9,29.82,WSW,245,8.0,15.0,59,0.00,,,0.00,VWS V14.01,2013-02-27 19:28:00,
2013-02-27 14:33:00,45.6,32.5,29.82,WSW,242,8.0,10.0,60,0.00,,,0.00,VWS V14.01,2013-02-27 19:33:00,
2013-02-27 14:38:00,46.1,33.0,29.82,WSW,251,5.0,9.0,60,0.00,,,0.00,VWS V14.01,2013-02-27 19:38:00,
2013-02-27 14:43:00,46.6,33.0,29.81,West,269,10.0,12.0,59,0.00,,,0.00,VWS V14.01,2013-02-27 19:43:00,
2013-02-27 14:48:00,46.8,32.4,29.81,West,266,13.0,16.0,57,0.00,,,0.00,VWS V14.01,2013-02-27 19:48:00,
2013-02-27 14:53:00,46.8,32.8,29.81,West,269,16.0,21.0,58,0.00,,,0.00,VWS V14.01,2013-02-27 19:53:00,
2013-02-27 14:58:00,46.6,32.2,29.81,West,260,9.0,12.0,57,0.00,,,0.00,VWS V14.01,2013-02-27 19:58:00,
2013-02-27 15:03:00,47.0,33.4,29.81,WSW,246,11.0,11.0,59,0.00,,,0.00,VWS V14.01,2013-02-27 20:03:00,
2013-02-27 15:08:00,47.6,33.1,29.81,WSW,256,12.0,12.0,57,0.00,,,0.00,VWS V14.01,2013-02-27 20:08:00,
2013-02-27 15:13:00,47.7,33.2,29.81,West,261,8.0,11.0,57,0.00,,,0.00,VWS V14.01,2013-02-27 20:13:00,
2013-02-27 15:18:00,47.4,32.1,29.81,West,261,8.0,12.0,55,0.00,,,0.00,VWS V14.01,2013-02-27 20:18:00,
2013-02-27 15:23:00,47.0,32.1,29.81,WSW,245,10.0,11.0,56,0.00,,,0.00,VWS V14.01,2013-02-27 20:23:00,
2013-02-27 15:28:00,46.8,32.4,29.81,West,275,14.0,14.0,57,0.00,,,0.00,VWS V14.01,2013-02-27 20:28:00,
2013-02-27 15:33:00,46.9,32.0,29.80,WNW,283,8.0,14.0,56,0.00,,,0.00,VWS V14.01,2013-02-27 20:33:00,
2013-02-27 15:38:00,47.4,33.0,29.80,WSW,249,10.0,14.0,57,0.00,,,0.00,VWS V14.01,2013-02-27 20:38:00,
2013-02-27 15:43:00,47.9,32.5,29.80,SW,225,8.0,17.0,55,0.00,,,0.00,VWS V14.01,2013-02-27 20:43:00,
2013-02-27 15:48:00,47.8,32.4,29.80,West,273,11.0,17.0,55,0.00,,,0.00,VWS V14.01,2013-02-27 20:48:00,
2013-02-27 15:53:00,47.3,32.0,29.80,WSW,256,10.0,12.0,55,0.00,,,0.00,VWS V14.01,2013-02-27 20:53:00,
2013-02-27 15:58:00,46.9,32.0,29.80,WSW,250,4.0,9.0,56,0.00,,,0.00,VWS V14.01,2013-02-27 20:58:00,
2013-02-27 16:03:00,47.3,33.3,29.80,West,277,7.0,9.0,58,0.00,,,0.00,VWS V14.01,2013-02-27 21:03:00,
2013-02-27 16:08:00,47.9,32.5,29.79,West,277,13.0,16.0,55,0.00,,,0.00,VWS V14.01,2013-02-27 21:08:00,
2013-02-27 16:13:00,48.1,32.3,29.80,WSW,249,12.0,16.0,54,0.00,,,0.00,VWS V14.01,2013-02-27 21:13:00,
2013-02-27 16:18:00,47.7,32.3,29.80,West,278,9.0,17.0,55,0.00,,,0.00,VWS V14.01,2013-02-27 21:18:00,
2013-02-27 16:23:00,47.2,32.3,29.80,West,272,9.0,9.0,56,0.00,,,0.00,VWS V14.01,2013-02-27 21:23:00,
2013-02-27 16:28:00,47.4,33.0,29.80,West,261,12.0,14.0,57,0.00,,,0.00,VWS V14.01,2013-02-27 21:28:00,
2013-02-27 16:33:00,48.3,32.4,29.79,West,268,13.0,20.0,54,0.00,,,0.00,VWS V14.01,2013-02-27 21:33:00,
2013-02-27 16:38:00,48.4,32.5,29.80,West,267,8.0,16.0,54,0.00,,,0.00,VWS V14.01,2013-02-27 21:38:00,
2013-02-27 16:43:00,48.4,32.5,29.80,WSW,242,13.0,19.0,54,0.00,,,0.00,VWS V14.01,2013-02-27 21:43:00,
2013-02-27 16:48:00,48.2,32.3,29.80,West,259,10.0,15.0,54,0.00,,,0.00,VWS V14.01,2013-02-27 21:48:00,
2013-02-27 16:53:00,47.9,32.1,29.80,West,264,8.0,14.0,54,0.00,,,0.00,VWS V14.01,2013-02-27 21:53:00,
2013-02-27 16:58:00,48.2,32.8,29.80,West,261,13.0,18.0,55,0.00,,,0.00,VWS V14.01,2013-02-27 21:58:00,
2013-02-27 17:03:00,48.2,32.3,29.80,WNW,288,7.0,13.0,54,0.00,,,0.00,VWS V14.01,2013-02-27 22:03:00,
2013-02-27 17:08:00,48.1,32.3,29.81,WSW,250,11.0,14.0,54,0.00,,,0.00,VWS V14.01,2013-02-27 22:08:00,
2013-02-27 17:13:00,47.9,32.5,29.80,West,261,10.0,14.0,55,0.00,,,0.00,VWS V14.01,2013-02-27 22:13:00,
2013-02-27 17:18:00,47.7,32.3,29.80,WSW,239,7.0,9.0,55,0.00,,,0.00,VWS V14.01,2013-02-27 22:18:00,
2013-02-27 17:23:00,47.3,32.0,29.80,West,259,10.0,12.0,55,0.00,,,0.00,VWS V14.01,2013-02-27 22:23:00,
2013-02-27 17:28:00,47.1,32.2,29.80,West,262,8.0,10.0,56,0.00,,,0.00,VWS V14.01,2013-02-27 22:28:00,
2013-02-27 17:33:00,47.1,32.2,29.80,West,260,8.0,10.0,56,0.00,,,0.00,VWS V14.01,2013-02-27 22:33:00,
2013-02-27 17:38:00,47.0,32.6,29.80,West,274,5.0,7.0,57,0.00,,,0.00,VWS V14.01,2013-02-27 22:38:00,
2013-02-27 17:43:00,47.0,32.6,29.80,West,264,6.0,7.0,57,0.00,,,0.00,VWS V14.01,2013-02-27 22:43:00,
2013-02-27 17:48:00,47.0,32.6,29.80,West,268,6.0,6.0,57,0.00,,,0.00,VWS V14.01,2013-02-27 22:48:00,
2013-02-27 17:53:00,47.0,32.6,29.80,West,270,6.0,10.0,57,0.00,,,0.00,VWS V14.01,2013-02-27 22:53:00,
2013-02-27 17:58:00,47.0,32.6,29.80,West,266,6.0,6.0,57,0.00,,,0.00,VWS V14.01,2013-02-27 22:58:00,
2013-02-27 18:03:00,47.0,32.6,29.80,WNW,288,4.0,6.0,57,0.00,,,0.00,VWS V14.01,2013-02-27 23:03:00,
2013-02-27 18:08:00,47.0,33.0,29.80,WNW,303,4.0,5.0,58,0.00,,,0.00,VWS V14.01,2013-02-27 23:08:00,
2013-02-27 18:13:00,46.9,32.9,29.80,WNW,298,5.0,6.0,58,0.00,,,0.00,VWS V14.01,2013-02-27 23:13:00,
2013-02-27 18:18:00,46.7,33.2,29.81,WNW,303,6.0,9.0,59,0.00,,,0.00,VWS V14.01,2013-02-27 23:18:00,
2013-02-27 18:23:00,46.4,33.7,29.81,WNW,297,4.0,9.0,61,0.00,,,0.00,VWS V14.01,2013-02-27 23:23:00,
2013-02-27 18:28:00,46.1,33.8,29.82,WNW,302,6.0,12.0,62,0.00,,,0.00,VWS V14.01,2013-02-27 23:28:00,
2013-02-27 18:33:00,45.8,34.3,29.82,West,276,5.0,7.0,64,0.00,,,0.00,VWS V14.01,2013-02-27 23:33:00,
2013-02-27 18:38:00,45.3,34.6,29.83,WNW,299,6.0,10.0,66,0.00,,,0.00,VWS V14.01,2013-02-27 23:38:00,
2013-02-27 18:43:00,44.8,34.5,29.83,West,277,5.0,9.0,67,0.00,,,0.00,VWS V14.01,2013-02-27 23:43:00,
2013-02-27 18:48:00,44.4,34.9,29.83,WNW,295,6.0,12.0,69,0.00,,,0.00,VWS V14.01,2013-02-27 23:48:00,
2013-02-27 18:53:00,44.0,34.9,29.83,West,279,11.0,14.0,70,0.00,,,0.00,VWS V14.01,2013-02-27 23:53:00,
2013-02-27 18:58:00,43.7,34.9,29.83,WNW,293,5.0,9.0,71,0.00,,,0.00,VWS V14.01,2013-02-27 23:58:00,
2013-02-27 19:03:00,43.5,35.1,29.83,West,274,4.0,10.0,72,0.00,,,0.00,VWS V14.01,2013-02-28 00:03:00,
2013-02-27 19:08:00,43.3,35.2,29.84,West,273,6.0,6.0,73,0.00,,,0.00,VWS V14.01,2013-02-28 00:08:00,
2013-02-27 19:13:00,43.2,35.1,29.84,WNW,287,1.0,6.0,73,0.00,,,0.00,VWS V14.01,2013-02-28 00:13:00,
2013-02-27 19:18:00,43.1,35.4,29.84,WSW,257,3.0,4.0,74,0.00,,,0.00,VWS V14.01,2013-02-28 00:18:00,
2013-02-27 19:23:00,43.0,35.3,29.84,West,262,1.0,4.0,74,0.00,,,0.00,VWS V14.01,2013-02-28 00:23:00,
2013-02-27 19:28:00,42.9,35.2,29.84,West,272,4.0,4.0,74,0.00,,,0.00,VWS V14.01,2013-02-28 00:28:00,
2013-02-27 19:33:00,42.9,35.2,29.84,West,271,2.0,4.0,74,0.00,,,0.00,VWS V14.01,2013-02-28 00:33:00,
2013-02-27 19:38:00,42.8,35.1,29.84,West,272,2.0,3.0,74,0.00,,,0.00,VWS V14.01,2013-02-28 00:38:00,
2013-02-27 19:43:00,42.8,35.1,29.84,WNW,283,1.0,3.0,74,0.00,,,0.00,VWS V14.01,2013-02-28 00:43:00,
2013-02-27 19:48:00,42.7,35.0,29.84,WNW,283,0.0,2.0,74,0.00,,,0.00,VWS V14.01,2013-02-28 00:48:00,
2013-02-27 19:53:00,42.7,35.3,29.84,WNW,282,2.0,5.0,75,0.00,,,0.00,VWS V14.01,2013-02-28 00:53:00,
2013-02-27 19:58:00,42.7,35.3,29.84,WNW,293,2.0,3.0,75,0.00,,,0.00,VWS V14.01,2013-02-28 00:58:00,
2013-02-27 20:03:00,42.7,35.0,29.84,WNW,283,5.0,8.0,74,0.00,,,0.00,VWS V14.01,2013-02-28 01:03:00,
2013-02-27 20:08:00,42.7,34.7,29.85,West,274,5.0,9.0,73,0.00,,,0.00,VWS V14.01,2013-02-28 01:08:00,
2013-02-27 20:13:00,42.8,34.4,29.85,WNW,289,6.0,10.0,72,0.00,,,0.00,VWS V14.01,2013-02-28 01:13:00,
2013-02-27 20:18:00,42.8,34.1,29.85,West,278,12.0,13.0,71,0.00,,,0.00,VWS V14.01,2013-02-28 01:18:00,
2013-02-27 20:23:00,42.8,33.7,29.85,WNW,298,4.0,10.0,70,0.00,,,0.00,VWS V14.01,2013-02-28 01:23:00,
2013-02-27 20:28:00,42.7,33.6,29.85,WNW,289,6.0,9.0,70,0.00,,,0.00,VWS V14.01,2013-02-28 01:28:00,
2013-02-27 20:33:00,42.6,33.5,29.85,West,278,8.0,9.0,70,0.00,,,0.00,VWS V14.01,2013-02-28 01:33:00,
2013-02-27 20:38:00,42.4,33.0,29.85,WNW,296,9.0,9.0,69,0.00,,,0.00,VWS V14.01,2013-02-28 01:38:00,
2013-02-27 20:43:00,42.1,32.7,29.85,WNW,286,13.0,13.0,69,0.00,,,0.00,VWS V14.01,2013-02-28 01:43:00,
2013-02-27 20:48:00,41.9,32.5,29.85,West,263,9.0,9.0,69,0.00,,,0.00,VWS V14.01,2013-02-28 01:48:00,
2013-02-27 20:53:00,41.7,32.3,29.86,West,268,6.0,8.0,69,0.00,,,0.00,VWS V14.01,2013-02-28 01:53:00,
2013-02-27 20:58:00,41.5,32.1,29.86,West,265,4.0,7.0,69,0.00,,,0.00,VWS V14.01,2013-02-28 01:58:00,
2013-02-27 21:03:00,41.3,32.3,29.86,West,266,4.0,7.0,70,0.00,,,0.00,VWS V14.01,2013-02-28 02:03:00,
2013-02-27 21:08:00,41.0,32.0,29.86,West,281,4.0,6.0,70,0.00,,,0.00,VWS V14.01,2013-02-28 02:08:00,
2013-02-27 21:13:00,40.7,31.7,29.86,West,267,6.0,7.0,70,0.00,,,0.00,VWS V14.01,2013-02-28 02:13:00,
2013-02-27 21:18:00,40.5,31.5,29.86,West,278,4.0,4.0,70,0.00,,,0.00,VWS V14.01,2013-02-28 02:18:00,
2013-02-27 21:23:00,40.3,31.7,29.86,West,263,5.0,9.0,71,0.00,,,0.00,VWS V14.01,2013-02-28 02:23:00,
2013-02-27 21:28:00,40.0,31.4,29.86,West,259,4.0,6.0,71,0.00,,,0.00,VWS V14.01,2013-02-28 02:28:00,
2013-02-27 21:33:00,39.9,31.3,29.86,West,269,2.0,4.0,71,0.00,,,0.00,VWS V14.01,2013-02-28 02:33:00,
2013-02-27 21:38:00,39.7,31.1,29.86,West,262,3.0,7.0,71,0.00,,,0.00,VWS V14.01,2013-02-28 02:38:00,
2013-02-27 21:43:00,39.4,30.8,29.87,West,272,5.0,11.0,71,0.00,,,0.00,VWS V14.01,2013-02-28 02:43:00,
2013-02-27 21:48:00,39.3,31.0,29.87,West,266,7.0,9.0,72,0.00,,,0.00,VWS V14.01,2013-02-28 02:48:00,
2013-02-27 21:53:00,39.2,31.0,29.87,West,268,4.0,6.0,72,0.00,,,0.00,VWS V14.01,2013-02-28 02:53:00,
2013-02-27 21:58:00,39.0,30.8,29.87,WSW,258,6.0,7.0,72,0.00,,,0.00,VWS V14.01,2013-02-28 02:58:00,
2013-02-27 22:03:00,38.9,30.7,29.87,WSW,257,5.0,8.0,72,0.00,,,0.00,VWS V14.01,2013-02-28 03:03:00,
2013-02-27 22:08:00,39.0,31.1,29.87,West,259,7.0,7.0,73,0.00,,,0.00,VWS V14.01,2013-02-28 03:08:00,
2013-02-27 22:13:00,39.0,31.1,29.87,West,262,5.0,6.0,73,0.00,,,0.00,VWS V14.01,2013-02-28 03:13:00,
2013-02-27 22:18:00,39.1,31.2,29.87,WSW,257,5.0,6.0,73,0.00,,,0.00,VWS V14.01,2013-02-28 03:18:00,
2013-02-27 22:23:00,39.2,31.3,29.87,West,263,4.0,8.0,73,0.00,,,0.00,VWS V14.01,2013-02-28 03:23:00,
2013-02-27 22:28:00,39.2,31.3,29.87,WSW,255,6.0,6.0,73,0.00,,,0.00,VWS V14.01,2013-02-28 03:28:00,
2013-02-27 22:33:00,39.2,31.3,29.87,WSW,256,5.0,7.0,73,0.00,,,0.00,VWS V14.01,2013-02-28 03:33:00,
2013-02-27 22:38:00,39.1,31.2,29.87,WSW,253,8.0,8.0,73,0.00,,,0.00,VWS V14.01,2013-02-28 03:38:00,
2013-02-27 22:43:00,39.2,31.6,29.87,WSW,258,5.0,6.0,74,0.00,,,0.00,VWS V14.01,2013-02-28 03:43:00,
2013-02-27 22:48:00,39.1,31.5,29.87,West,264,6.0,9.0,74,0.00,,,0.00,VWS V14.01,2013-02-28 03:48:00,
2013-02-27 22:53:00,39.1,31.2,29.87,West,273,5.0,7.0,73,0.00,,,0.00,VWS V14.01,2013-02-28 03:53:00,
2013-02-27 22:58:00,39.1,31.2,29.87,West,271,4.0,7.0,73,0.00,,,0.00,VWS V14.01,2013-02-28 03:58:00,
2013-02-27 23:03:00,39.1,31.2,29.87,WSW,255,6.0,7.0,73,0.00,,,0.00,VWS V14.01,2013-02-28 04:03:00,
2013-02-27 23:08:00,39.0,31.1,29.87,West,264,5.0,6.0,73,0.00,,,0.00,VWS V14.01,2013-02-28 04:08:00,
2013-02-27 23:13:00,38.9,31.0,29.87,WSW,253,3.0,5.0,73,0.00,,,0.00,VWS V14.01,2013-02-28 04:13:00,
2013-02-27 23:18:00,38.8,30.9,29.87,West,259,6.0,7.0,73,0.00,,,0.00,VWS V14.01,2013-02-28 04:18:00,
2013-02-27 23:23:00,38.8,30.9,29.87,WSW,252,5.0,7.0,73,0.00,,,0.00,VWS V14.01,2013-02-28 04:23:00,
2013-02-27 23:28:00,38.8,30.9,29.87,SW,236,3.0,6.0,73,0.00,,,0.00,VWS V14.01,2013-02-28 04:28:00,
2013-02-27 23:33:00,38.8,30.9,29.87,WSW,247,5.0,6.0,73,0.00,,,0.00,VWS V14.01,2013-02-28 04:33:00,
2013-02-27 23:38:00,38.9,30.7,29.87,West,267,3.0,9.0,72,0.00,,,0.00,VWS V14.01,2013-02-28 04:38:00,
2013-02-27 23:43:00,39.0,30.4,29.87,SW,234,2.0,4.0,71,0.00,,,0.00,VWS V14.01,2013-02-28 04:43:00,
2013-02-27 23:48:00,39.0,30.4,29.87,WSW,240,2.0,3.0,71,0.00,,,0.00,VWS V14.01,2013-02-28 04:48:00,
2013-02-27 23:53:00,39.1,30.9,29.86,SW,235,3.0,3.0,72,0.00,,,0.00,VWS V14.01,2013-02-28 04:53:00,
2013-02-27 23:58:00,39.1,30.9,29.86,WSW,243,3.0,3.0,72,0.00,,,0.00,VWS V14.01,2013-02-28 04:58:00,